User: anonymous   Login
Location: Columbus
(29.5618°N, 96.6770°W)
Time: 21:29:23
(UTC-05:00)
Language:

Cosmos 2056 Rocket - Orbit

View from above orbital plane
View from above orbital plane
View from above satellite
View from above satellite

Ground track
Ground track

The orbit data is extracted from the following two-line orbital elements,

1 20433U 90004B   15244.93924530 +.00000084 +00000-0 +37764-4 0  9999
2 20433 074.0356 117.1283 0040267 044.9100 056.7095 14.35865800341010
Epoch (UTC): 01 September 2015 22:32:30
Eccentricity: 0.0040267
inclination: 74.0356°
perigee height: 743 km
apogee height: 801 km
right ascension of ascending node: 117.1283°
argument of perigee: 44.9100°
revolutions per day: 14.35865800
mean anomaly at epoch: 56.7095°
orbit number at epoch: 34101

The dashed part of the orbit path shows where the satellite is in the earth's shadow,  

DLR